Location: Newark
(45.6667°N, 9.8167°E)
Time: 11:41:32
(UTC+00:00)

Envisat - Visible Passes

Search period start: 26 January 2020 00:00
Search period end: 05 February 2020 00:00
Orbit: 764 x 766 km, 98.1° (Epoch: 26 January)

Date Brightness Start Highest point End Pass type
(mag) Time Alt. Az. Time Alt. Az. Time Alt. Az.
26 Jan 4.4 05:36:15 10° NNE 05:41:05 43° E 05:45:55 10° S visible
26 Jan 3.0 16:52:53 10° SSE 16:57:55 71° ENE 17:03:00 10° N visible
26 Jan 6.0 18:34:29 10° SW 18:37:28 16° W 18:40:28 10° NW visible
27 Jan 5.7 05:00:15 10° NE 05:04:03 21° E 05:07:48 10° SE visible
27 Jan 4.9 17:55:48 10° SSW 18:00:20 32° W 18:04:54 10° NNW visible
28 Jan 3.3 06:01:33 10° NNE 06:06:40 74° ESE 06:11:44 10° S visible
28 Jan 3.4 17:18:20 10° S 17:23:24 69° WSW 17:28:30 10° NNW visible
29 Jan 4.8 05:25:06 10° NNE 05:29:44 34° E 05:34:21 10° SSE visible
29 Jan 5.7 18:22:25 10° SW 18:26:03 19° W 18:29:42 10° NW visible
30 Jan 6.1 04:49:25 10° NE 04:52:37 17° E 04:55:48 10° SE visible
30 Jan 4.5 17:44:13 10° SSW 17:48:58 40° W 17:53:46 10° NNW visible
31 Jan 3.7 05:50:18 10° NNE 05:55:21 59° E 06:00:21 10° S visible
31 Jan 3.1 17:07:01 10° SSE 17:12:06 86° WSW 17:17:13 10° NNW visible
31 Jan 6.4 18:50:26 10° WSW 18:51:53 11° W 18:53:19 10° WNW visible
01 Feb 5.3 05:14:00 10° NE 05:18:22 28° E 05:22:41 10° SSE visible
01 Feb 5.4 18:10:33 10° SSW 18:14:39 24° W 18:18:46 10° NW visible
02 Feb 6.3 04:38:50 10° ENE 04:41:11 13° E 04:43:32 10° ESE visible
02 Feb 4.0 17:32:42 10° S 17:37:38 51° W 17:42:35 10° NNW visible
03 Feb 4.2 05:39:06 10° NNE 05:44:01 47° E 05:48:53 10° S visible
03 Feb 3.0 16:55:44 10° SSE 17:00:48 77° ENE 17:05:54 10° N visible
03 Feb 6.2 18:37:45 10° WSW 18:40:25 14° W 18:43:07 10° NW visible
04 Feb 5.6 05:03:00 10° NE 05:06:58 22° E 05:10:55 10° SE visible
04 Feb 5.1 17:58:50 10° SSW 18:03:15 30° W 18:07:43 10° NNW visible
